This is the latest recevied weather packets stored in our database for station/object N8TWM-13. If no packets are shown the sender has not sent any weather packets the latest 10 day(s).
| Time | Temp. | Humidity | Pressure | Rain* | Wind** | Luminosity | Snow |
|---|---|---|---|---|---|---|---|
| 1778093442 | 12.22° C | 58% | 1012.5 hPa | 0 mm | - | 134 W/m² | - |
| 1778093139 | 12.22° C | 58% | 1012.6 hPa | 0 mm | - | 124 W/m² | - |
| 1778092836 | 11.67° C | 57% | 1012.7 hPa | 0 mm | - | 143 W/m² | - |
| 1778092532 | 12.22° C | 55% | 1012.8 hPa | 0 mm | - | 148 W/m² | - |
| 1778092229 | 12.78° C | 56% | 1012.6 hPa | 0 mm | - | 168 W/m² | - |
| 1778091926 | 13.33° C | 56% | 1012.2 hPa | 0 mm | - | 262 W/m² | - |
| 1778091623 | 13.33° C | 56% | 1012.2 hPa | 0 mm | - | 252 W/m² | - |
| 1778091321 | 12.78° C | 56% | 1012.3 hPa | 0 mm | - | 510 W/m² | - |
| 1778091018 | 12.78° C | 56% | 1012.3 hPa | 0 mm | - | 327 W/m² | - |
| 1778090714 | 12.78° C | 57% | 1012.5 hPa | 0 mm | - | 225 W/m² | - |
| 1778090411 | 12.22° C | 56% | 1012.2 hPa | 0 mm | - | 314 W/m² | - |
| 1778090108 | 12.78° C | 56% | 1012.4 hPa | 0 mm | - | 212 W/m² | - |
| 1778089804 | 13.33° C | 56% | 1012.4 hPa | 0 mm | - | 348 W/m² | - |
| 1778089503 | 12.78° C | 57% | 1012.3 hPa | 0 mm | - | 582 W/m² | - |
| 1778089198 | 12.78° C | 56% | 1012.4 hPa | 0 mm | - | 350 W/m² | - |
| 1778088896 | 12.78° C | 59% | 1012.5 hPa | 0 mm | - | 383 W/m² | - |
| 1778088593 | 12.78° C | 58% | 1012.1 hPa | 0 mm | - | 286 W/m² | - |
| 1778088290 | 13.33° C | 58% | 1012 hPa | 0 mm | - | 347 W/m² | - |
| 1778087986 | 13.33° C | 60% | 1012.2 hPa | 0 mm | - | 341 W/m² | - |
| 1778087684 | 12.78° C | 59% | 1012.2 hPa | 0 mm | - | 434 W/m² | - |
| 1778087382 | 12.78° C | 59% | 1012.1 hPa | 0 mm | - | 382 W/m² | - |
| 1778087077 | 12.78° C | 60% | 1011.9 hPa | 0 mm | - | 399 W/m² | - |
| 1778086771 | 12.78° C | 59% | 1012.2 hPa | 0 mm | - | 547 W/m² | - |
| 1778086469 | 12.22° C | 60% | 1012.2 hPa | 0 mm | - | 695 W/m² | - |
| 1778086164 | 12.78° C | 63% | 1012.3 hPa | 0 mm | - | 597 W/m² | - |
* Rain latest hour (hover to see other rain measurements)
** Current wind speed in m/s (hover to see current wind gust speed)